STARLINK-37910

Last updated on Sun Aug 09 2026 00:02:04 GMT+0000 (Coordinated Universal Time)

1 69961U 26157U 26220.15788043 .00030593 00000+0 55561-3 0 9994 2 69961 53.1595 177.4218 0001016 74.4254 285.6867 15.49327113 4704
UTC large
Height (km)
Speed (km/s)
/
Latitude / Longitude
Inclination (degrees)
Orbital Period (minutes)
Azimuth
Elevation
Range (km)
Doppler Factor

Next 0 passes for location: London (51.5072 / 0.1276)

No passes found over London.
STARLINK-37910